sat.trackr.live / text

‹ back to catalog

STARLINK-3617

NORAD 51780 · 2022-017N

PAYLOAD ACTIVE UNKNOWN

§ Identity

Operator
Country
US
Launch date
2022-02-25
Launch site
AFWTR
Launch vehicle
Mass (kg)
RCS (m²)

Purposes: comms

External: N2YO · Heavens-Above · Gunter

§ Orbital elements

Epoch: 2026-09-19T11:43:09.513120Z

Period
93.85 min
Inclination
53.1598°
Eccentricity
0.0001052
Mean motion
15.34385499 rev/d
Perigee alt
462.0 km
Apogee alt
463.5 km
Semi-major
6,840.9 km
B*
2.7914e-5
RAAN
176.1199°
Arg perigee
95.0635°
Mean anomaly
265.0488°
Rev number
25,185

§ Raw data

STARLINK-36171 51780U 22017N   26262.48830455  .00000567  00000+0  27914-4 0  99922 51780  53.1598 176.1199 0001052  95.0635 265.0488 15.34385499251859

JSON: /api/v1/satellites/51780 · /tle

For live sub-satellite position, see the globe view (requires WebGL).

§ Visibility from observer

Set your observer location to see the next 7 days of passes ≥ 10°. The values pass through the URL so the page stays shareable.

No JS? Fill the form by hand. The geolocation button needs JavaScript.